{"data":{"norad_id":39012,"epoch":"2026-05-24T22:07:42.381120Z","epoch_age_seconds":77642,"freshness":"FRESH","line1":"1 39012U 12066B   26144.92201830 -.00000056  00000+0  33404-4 0  9991","line2":"2 39012  63.3554 350.1137 0433839  26.7028 335.5640 13.45512117662974","mean_motion":13.45512117,"eccentricity":0.0433839,"inclination_deg":63.3554,"raan_deg":350.1137,"arg_perigee_deg":26.7028,"mean_anomaly_deg":335.564,"bstar":3.3404e-5,"rev_number":66297,"period_min":107.02244757265,"perigee_km":764.87070183924,"apogee_km":1412.7618084928,"semimajor_km":7466.953255166,"source":"CELESTRAK","updated_at":"2026-05-25T13:37:55.331532Z"}}